Location: Nebraska Star Party
(42.6000°N, 100.8833°W)
Time: 00:34:28
(UTC-06:00)

Amateur Radio Satellites - All Passes

Search period start: 21 November 2017 00:04
Search period end: 22 November 2017 00:04
Location: Nebraska Star Party, 42.6000°N, 100.8833°W

Satellite Date Start Highest point End Downlink Frequencies (MHz)
Time Altitude Azimuth
PRISM 21 Nov 00:08:23 00:12:01 29° 292° (WNW) 00:15:38 437.425
LO-87 21 Nov 00:10:27 00:12:44 16° 267° (W) 00:15:01 145.935 - 145.965
RS-15 21 Nov 00:15:52 00:25:20 25° 360° (N) 00:34:33 29.354- 29.394
ISS 21 Nov 00:21:33 00:23:53 18° 352° (N) 00:26:13 437.550
DUCHIFAT 1 21 Nov 00:22:47 00:26:33 32° 97° (E) 00:30:17 145.980
EO-79 21 Nov 00:29:25 00:33:31 51° 100° (E) 00:37:35 145.935-145.965
SO-50 21 Nov 00:30:27 00:32:57 15° 324° (NW) 00:35:29 436.795
50 SAT 21 Nov 00:31:42 00:33:28 14° 66° (ENE) 00:35:14 437.505
NANOSAT C BR1 21 Nov 00:32:55 00:37:00 49° 100° (E) 00:41:02 145.865
NO-84 21 Nov 00:34:06 00:36:00 13° 238° (WSW) 00:37:52 435.350 FM
AIST 2D 21 Nov 00:42:04 00:45:07 28° 289° (WNW) 00:48:10 435.315
POLYITAN 1 21 Nov 00:44:34 00:48:46 76° 102° (ESE) 00:52:56 437.675
O/OREOS (USA 219) 21 Nov 00:45:29 00:49:23 29° 256° (WSW) 00:53:15 437.305
DX 1 21 Nov 00:47:25 00:51:05 27° 67° (ENE) 00:54:46 434.975-435.025
Oscar 19 21 Nov 00:54:07 00:55:27 11° 88° (E) 00:56:47 437.125/150
PCSat 21 Nov 00:54:50 01:00:12 68° 117° (ESE) 01:05:36 145.827
SPROUT 21 Nov 01:00:43 01:04:36 33° 263° (W) 01:08:29 437.525
QB50P2 21 Nov 01:07:58 01:12:04 52° 287° (WNW) 01:16:07 145.880/145.840
Gurwin Techsat 1B 21 Nov 01:15:38 01:18:10 13° 89° (E) 01:20:41 435.225
nSIGHT-1 21 Nov 01:15:42 01:17:53 17° 5° (N) 01:20:04 .
BUGSAT 1 21 Nov 01:16:49 01:20:25 30° 97° (E) 01:23:57 437.445
UKube-1 21 Nov 01:29:38 01:33:46 46° 71° (ENE) 01:37:55 .
VELOX 1 21 Nov 01:37:27 01:40:56 22° 266° (W) 01:44:26 145.980
ISS 21 Nov 01:58:43 02:01:14 20° 12° (NNE) 02:03:44 437.550
DUCHIFAT 1 21 Nov 01:58:48 02:02:01 22° 293° (WNW) 02:05:13 145.980
50 SAT 21 Nov 02:02:24 02:05:17 30° 262° (W) 02:08:13 437.505
EO-79 21 Nov 02:06:26 02:08:51 15° 297° (WNW) 02:11:15 145.935-145.965
BEESAT 3 21 Nov 02:09:35 02:10:24 11° 108° (ESE) 02:11:14 437.485
NANOSAT C BR1 21 Nov 02:09:49 02:12:18 15° 296° (WNW) 02:14:46 145.865
BEESAT 21 Nov 02:18:16 02:22:03 24° 65° (ENE) 02:25:51 436.000
POLYITAN 1 21 Nov 02:23:00 02:23:55 11° 299° (WNW) 02:24:50 437.675
DX 1 21 Nov 02:23:21 02:27:09 29° 263° (W) 02:31:00 434.975-435.025
ITUPSAT 1 21 Nov 02:27:26 02:31:30 28° 67° (ENE) 02:35:35 437.325
Oscar 19 21 Nov 02:30:15 02:35:26 89° 287° (WNW) 02:40:37 437.125/150
RS-15 21 Nov 02:31:24 02:42:29 39° 34° (NE) 02:52:58 29.354- 29.394
M-CUBED/EXP-1 PRIME 21 Nov 02:32:37 02:35:23 16° 97° (E) 02:38:10 437.505
PCSat 21 Nov 02:39:56 02:44:06 22° 316° (NW) 02:48:17 145.827
MOZHAYETS 4 21 Nov 02:42:01 02:46:24 48° 72° (ENE) 02:50:47
nSIGHT-1 21 Nov 02:51:46 02:54:47 36° 25° (NNE) 02:57:46 .
BUGSAT 1 21 Nov 02:52:29 02:55:35 22° 293° (WNW) 02:58:40 437.445
Gurwin Techsat 1B 21 Nov 02:53:21 02:58:42 78° 286° (WNW) 03:04:00 435.225
CUBESAT XI-V 21 Nov 02:54:41 02:57:30 16° 63° (ENE) 03:00:19 437.345
UKube-1 21 Nov 03:07:16 03:10:01 16° 268° (W) 03:12:45 .
AO-7 21 Nov 03:09:06 03:15:47 26° 94° (E) 03:22:27 .
BEESAT 2 21 Nov 03:18:22 03:21:02 17° 111° (ESE) 03:23:44 435.950
ISS 21 Nov 03:34:55 03:38:10 66° 31° (NNE) 03:41:24 437.550
BEESAT 3 21 Nov 03:43:21 03:47:20 72° 305° (NW) 03:51:21 437.485
BEESAT 21 Nov 03:55:08 03:59:36 39° 262° (W) 04:04:05 436.000
ITUPSAT 1 21 Nov 04:04:56 04:09:13 32° 263° (W) 04:13:31 437.325
M-CUBED/EXP-1 PRIME 21 Nov 04:05:32 04:10:01 59° 291° (WNW) 04:14:34 437.505
AO-85 21 Nov 04:05:41 04:08:32 20° 112° (ESE) 04:11:27 145.980
Oscar 19 21 Nov 04:11:51 04:13:59 13° 302° (WNW) 04:16:07 437.125/150
MOZHAYETS 4 21 Nov 04:20:48 04:23:48 17° 268° (W) 04:26:49
ITAMSAT 1 21 Nov 04:22:13 04:27:23 61° 101° (E) 04:32:31 435.822/435.867
nSIGHT-1 21 Nov 04:28:06 04:30:57 30° 223° (SW) 04:33:48 .
CUBESAT XI-V 21 Nov 04:29:54 04:34:23 56° 260° (W) 04:38:57 437.345
KKS-1 21 Nov 04:35:25 04:39:36 41° 70° (ENE) 04:43:49 437.445
Gurwin Techsat 1B 21 Nov 04:36:02 04:37:45 12° 304° (NW) 04:39:28 435.225
RS-15 21 Nov 04:44:19 04:56:10 79° 241° (WSW) 05:07:21 29.354- 29.394
BEESAT 2 21 Nov 04:54:32 04:58:24 45° 308° (NW) 05:02:20 435.950
STARS 21 Nov 05:00:26 05:04:18 30° 68° (ENE) 05:08:12 437.465
AO-7 21 Nov 05:00:53 05:09:11 72° 292° (WNW) 05:17:29 .
DOVE 4 21 Nov 05:04:46 05:09:20 31° 94° (E) 05:13:41 437.250
ISS 21 Nov 05:12:17 05:14:19 15° 228° (SW) 05:16:19 437.550
YUBILEINY 21 Nov 05:22:25 05:30:16 39° 85° (E) 05:38:09 435.215
BEESAT 3 21 Nov 05:24:24 05:25:36 11° 324° (NW) 05:26:47 437.485
SO-50 21 Nov 05:38:15 05:41:21 17° 39° (NE) 05:44:30 436.795
AO-85 21 Nov 05:44:59 05:48:38 37° 311° (NW) 05:52:27 145.980
XW-2C 21 Nov 05:50:34 05:52:38 14° 92° (E) 05:54:42 145.795 - 145.815
LilacSat-2 21 Nov 05:52:06 05:54:32 16° 92° (E) 05:56:58 437.200
CUTE-I 21 Nov 05:54:32 05:57:53 17° 91° (E) 06:01:12 437.470
XW-2F 21 Nov 06:00:57 06:03:32 17° 93° (E) 06:06:06 145.980 - 146.000
ITAMSAT 1 21 Nov 06:02:49 06:06:22 19° 299° (WNW) 06:09:54 435.822/435.867
KKS-1 21 Nov 06:13:02 06:16:18 20° 267° (W) 06:19:36 437.445
KAITUO 1B 21 Nov 06:28:26 06:31:44 28° 96° (E) 06:35:01 145.475/437.950
STARS 21 Nov 06:36:54 06:40:37 26° 264° (W) 06:44:20 437.465
FO-29 21 Nov 06:37:57 06:41:52 16° 51° (NE) 06:45:58 435.910
DOVE 4 21 Nov 06:42:18 06:46:57 34° 292° (WNW) 06:51:25 437.250
XW-2D 21 Nov 06:42:48 06:46:36 63° 101° (E) 06:50:22 145.860 - 145.880
AO-7 21 Nov 06:55:27 07:00:32 18° 313° (NW) 07:05:38 .
XW-2B 21 Nov 06:57:37 07:01:26 88° 279° (W) 07:05:15 145.730 - 145.750
STRAND 1 21 Nov 06:59:21 07:04:24 57° 72° (ENE) 07:09:27 437.568
RS-15 21 Nov 06:59:24 07:06:25 19° 263° (W) 07:13:18 29.354- 29.394
HO-68 21 Nov 07:02:57 07:09:17 32° 96° (E) 07:15:32 435.675
NUDT-PHONESAT 21 Nov 07:12:52 07:16:35 82° 282° (WNW) 07:20:18 437.300
SO-50 21 Nov 07:17:43 07:22:22 80° 238° (WSW) 07:27:05 436.795
YUBILEINY 21 Nov 07:18:28 07:26:51 48° 286° (WNW) 07:35:20 435.215
XW-2C 21 Nov 07:23:24 07:27:00 41° 287° (WNW) 07:30:36 145.795 - 145.815
LilacSat-2 21 Nov 07:25:24 07:28:56 36° 288° (WNW) 07:32:28 437.200
CUTE 1.7 + AOD 2 21 Nov 07:26:05 07:30:11 43° 98° (E) 07:34:16 437.475
CUTE-I 21 Nov 07:33:03 07:38:23 65° 288° (WNW) 07:43:40 437.470
XW-2F 21 Nov 07:34:17 07:37:42 33° 289° (WNW) 07:41:07 145.980 - 146.000
UWE-3 21 Nov 07:43:16 07:46:25 21° 94° (E) 07:49:33 435.000/436.395/437.385
SEEDS 21 Nov 07:56:34 08:00:46 57° 100° (E) 08:04:56 437.485
PCSat 21 Nov 08:00:15 08:02:52 13° 36° (NE) 08:05:28 145.827
KAITUO 1B 21 Nov 08:02:42 08:05:31 20° 292° (WNW) 08:08:21 145.475/437.950
AAUSAT CUBESAT 2 21 Nov 08:03:44 08:07:25 29° 96° (E) 08:11:04 437.432
FO-29 21 Nov 08:18:52 08:25:28 74° 72° (ENE) 08:32:55 435.910
XW-2D 21 Nov 08:19:28 08:20:13 10° 297° (WNW) 08:21:00 145.860 - 145.880
CUBEBUG 2 21 Nov 08:22:05 08:26:16 78° 283° (WNW) 08:30:23 437.445
AO-73 21 Nov 08:24:19 08:27:52 27° 96° (E) 08:31:26 145.935
UNISAT 6 21 Nov 08:25:35 08:28:05 15° 63° (ENE) 08:30:35 437.425
TIGRISAT 21 Nov 08:29:53 08:32:26 15° 63° (ENE) 08:34:57 435.000
XW-2A 21 Nov 08:35:04 08:38:27 84° 102° (ESE) 08:41:49 145.665 - 145.685
STRAND 1 21 Nov 08:40:28 08:43:55 18° 268° (W) 08:47:24 437.568
Oscar 11 21 Nov 08:40:40 08:44:26 28° 96° (E) 08:48:11 .
HO-68 21 Nov 08:50:19 08:57:13 51° 294° (WNW) 09:04:04 435.675
CUTE 1.7 + AOD 2 21 Nov 09:02:47 09:05:41 18° 295° (WNW) 09:08:35 437.475
ZACube-1 21 Nov 09:09:01 09:13:11 81° 282° (WNW) 09:17:20 437.345
UWE-3 21 Nov 09:19:14 09:22:56 32° 290° (WNW) 09:26:37 435.000/436.395/437.385
PRISM 21 Nov 09:23:28 09:26:25 19° 65° (ENE) 09:29:24 437.425
SEEDS 21 Nov 09:33:45 09:35:58 14° 297° (WNW) 09:38:09 437.485
AAUSAT CUBESAT 2 21 Nov 09:39:20 09:42:43 24° 292° (WNW) 09:46:06 437.432
EO-88 21 Nov 09:39:38 09:40:36 11° 90° (E) 09:41:34 145.990 - 145.960
Max Valier Satellite 21 Nov 09:40:10 09:42:33 16° 93° (E) 09:44:57 145.860
PCSat 21 Nov 09:41:59 09:47:23 63° 57° (ENE) 09:52:44 145.827
UNISAT 6 21 Nov 09:59:47 10:04:19 61° 259° (W) 10:08:47 437.425
AO-73 21 Nov 10:00:37 10:04:01 25° 292° (WNW) 10:07:26 145.935
TIGRISAT 21 Nov 10:04:07 10:08:39 60° 259° (W) 10:13:06 435.000
FALCONSAT 3 21 Nov 10:05:31 10:07:25 14° 159° (SSE) 10:09:20 435.103
FO-29 21 Nov 10:06:27 10:11:19 21° 273° (W) 10:16:35 435.910
DELFI C3 21 Nov 10:08:34 10:12:31 55° 100° (E) 10:16:25 145.870
Oscar 11 21 Nov 10:16:52 10:20:28 26° 292° (WNW) 10:24:05 .
BEESAT 3 21 Nov 10:23:36 10:25:00 12° 37° (NE) 10:26:24 437.485
QB50P2 21 Nov 10:27:44 10:29:31 12° 62° (ENE) 10:31:18 145.880/145.840
HO-68 21 Nov 10:42:02 10:43:17 10° 314° (NW) 10:44:32 435.675
PRISM 21 Nov 10:57:35 11:01:25 37° 262° (W) 11:05:17 437.425
EO-88 21 Nov 11:10:58 11:14:31 49° 286° (WNW) 11:18:02 145.990 - 145.960
Max Valier Satellite 21 Nov 11:13:10 11:16:27 32° 289° (WNW) 11:19:45 145.860
DUCHIFAT 1 21 Nov 11:15:04 11:18:37 27° 68° (ENE) 11:22:10 145.980
AIST 2D 21 Nov 11:15:56 11:19:23 75° 259° (W) 11:22:52 435.315
EO-79 21 Nov 11:22:05 11:26:04 41° 72° (ENE) 11:30:03 145.935-145.965
NANOSAT C BR1 21 Nov 11:25:16 11:29:12 39° 71° (ENE) 11:33:09 145.865
PCSat 21 Nov 11:26:31 11:30:14 19° 255° (WSW) 11:33:57 145.827
ESTCUBE 1 21 Nov 11:29:52 11:33:36 25° 94° (E) 11:37:19 437.505/2401.250
BEESAT 2 21 Nov 11:34:26 11:37:06 17° 41° (NE) 11:39:44 435.950
LO-87 21 Nov 11:34:58 11:38:15 34° 98° (E) 11:41:29 145.935 - 145.965
POLYITAN 1 21 Nov 11:37:13 11:41:24 60° 74° (ENE) 11:45:35 437.675
FALCONSAT 3 21 Nov 11:42:48 11:45:53 25° 174° (S) 11:48:59 435.103
DELFI C3 21 Nov 11:44:56 11:46:47 13° 297° (WNW) 11:48:35 145.870
BEESAT 3 21 Nov 11:59:15 12:03:13 79° 55° (NE) 12:07:06 437.485
QB50P2 21 Nov 12:00:31 12:04:45 66° 259° (WSW) 12:08:59 145.880/145.840
BUGSAT 1 21 Nov 12:07:00 12:10:26 25° 68° (ENE) 12:13:51 437.445
Oscar 19 21 Nov 12:10:30 12:14:04 19° 62° (ENE) 12:17:37 437.125/150
AO-85 21 Nov 12:34:12 12:38:16 29° 47° (NE) 12:42:34 145.980
Gurwin Techsat 1B 21 Nov 12:36:39 12:40:53 25° 64° (ENE) 12:45:07 435.225
SPROUT 21 Nov 12:45:05 12:49:02 37° 98° (E) 12:52:57 437.525
DUCHIFAT 1 21 Nov 12:50:37 12:54:12 27° 264° (W) 12:57:47 145.980
EO-79 21 Nov 12:59:07 13:01:59 18° 267° (W) 13:04:52 145.935-145.965
NANOSAT C BR1 21 Nov 13:02:06 13:05:03 18° 267° (W) 13:08:00 145.865
ESTCUBE 1 21 Nov 13:06:21 13:10:25 33° 291° (WNW) 13:14:28 437.505/2401.250
LO-87 21 Nov 13:09:18 13:11:21 15° 294° (WNW) 13:13:23 145.935 - 145.965
BEESAT 2 21 Nov 13:11:13 13:15:12 62° 240° (WSW) 13:19:07 435.950
POLYITAN 1 21 Nov 13:15:54 13:17:33 12° 270° (W) 13:19:12 437.675
O/OREOS (USA 219) 21 Nov 13:19:05 13:23:02 29° 104° (ESE) 13:27:01 437.305
M-CUBED/EXP-1 PRIME 21 Nov 13:19:09 13:21:34 17° 58° (ENE) 13:24:06 437.505
FALCONSAT 3 21 Nov 13:21:28 13:24:28 23° 189° (S) 13:27:27 435.103
VELOX 1 21 Nov 13:25:19 13:29:45 64° 101° (E) 13:34:10 145.980
BUGSAT 1 21 Nov 13:42:01 13:45:40 28° 264° (W) 13:49:19 437.445
Oscar 19 21 Nov 13:47:55 13:52:56 57° 260° (W) 13:57:59 437.125/150
ITAMSAT 1 21 Nov 14:04:30 14:07:14 15° 58° (ENE) 14:09:59 435.822/435.867
AO-7 21 Nov 14:08:43 14:16:14 40° 59° (ENE) 14:23:45 .
DX 1 21 Nov 14:10:03 14:14:14 43° 99° (E) 14:18:24 434.975-435.025
AO-85 21 Nov 14:14:20 14:18:47 41° 243° (WSW) 14:23:32 145.980
Gurwin Techsat 1B 21 Nov 14:15:27 14:20:32 46° 261° (W) 14:25:40 435.225
SPROUT 21 Nov 14:21:33 14:24:40 20° 294° (WNW) 14:27:47 437.525
MOZHAYETS 4 21 Nov 14:39:14 14:39:47 10° 88° (E) 14:40:20
50 SAT 21 Nov 14:50:34 14:53:38 40° 287° (WNW) 14:56:39 437.505
UKube-1 21 Nov 14:51:23 14:55:44 77° 103° (ESE) 15:00:02 .
M-CUBED/EXP-1 PRIME 21 Nov 14:52:20 14:55:38 36° 258° (WSW) 14:59:12 437.505
O/OREOS (USA 219) 21 Nov 14:58:19 15:02:22 30° 301° (WNW) 15:06:27 437.305
FALCONSAT 3 21 Nov 15:01:52 15:02:52 11° 204° (SSW) 15:03:52 435.103
VELOX 1 21 Nov 15:03:22 15:05:39 14° 299° (WNW) 15:07:57 145.980
YUBILEINY 21 Nov 15:31:48 15:37:56 20° 61° (ENE) 15:44:02 435.215
ITAMSAT 1 21 Nov 15:40:45 15:45:59 82° 256° (WSW) 15:51:16 435.822/435.867
NO-84 21 Nov 15:46:51 15:50:30 76° 138° (SE) 15:54:29 435.350 FM
DX 1 21 Nov 15:47:00 15:50:06 19° 296° (WNW) 15:53:10 434.975-435.025
BEESAT 21 Nov 15:54:01 15:58:38 48° 100° (E) 16:03:12 436.000
AO-7 21 Nov 16:00:51 16:08:47 50° 259° (WSW) 16:16:49 .
ITUPSAT 1 21 Nov 16:03:54 16:08:37 59° 101° (ESE) 16:13:18 437.325
DOVE 4 21 Nov 16:10:04 16:14:34 33° 68° (ENE) 16:19:15 437.250
MOZHAYETS 4 21 Nov 16:12:54 16:17:29 79° 284° (WNW) 16:22:02
CUBESAT XI-V 21 Nov 16:25:36 16:29:50 33° 96° (E) 16:34:05 437.345
UKube-1 21 Nov 16:29:42 16:31:06 11° 300° (WNW) 16:32:30 .
RS-15 21 Nov 17:02:09 17:08:11 15° 94° (E) 17:14:12 29.354- 29.394
KAITUO 1B 21 Nov 17:09:49 17:12:00 15° 66° (ENE) 17:14:10 145.475/437.950
CUTE-I 21 Nov 17:16:29 17:21:05 30° 65° (ENE) 17:25:43 437.470
XW-2D 21 Nov 17:24:34 17:27:54 31° 71° (ENE) 17:31:15 145.860 - 145.880
NO-84 21 Nov 17:25:04 17:28:15 24° 338° (NNW) 17:31:37 435.350 FM
YUBILEINY 21 Nov 17:27:09 17:36:05 89° 83° (E) 17:44:55 435.215
BEESAT 21 Nov 17:32:38 17:36:03 20° 297° (WNW) 17:39:27 436.000
HO-68 21 Nov 17:32:56 17:38:44 27° 58° (ENE) 17:44:33 435.675
XW-2B 21 Nov 17:39:08 17:42:42 45° 73° (ENE) 17:46:18 145.730 - 145.750
ITUPSAT 1 21 Nov 17:42:58 17:45:58 17° 298° (WNW) 17:48:56 437.325
DOVE 4 21 Nov 17:47:43 17:52:10 32° 266° (W) 17:56:50 437.250
CUBEBUG 2 21 Nov 17:48:03 17:48:37 10° 61° (ENE) 17:49:12 437.445
NUDT-PHONESAT 21 Nov 17:52:07 17:55:35 44° 73° (ENE) 17:59:06 437.300
KKS-1 21 Nov 18:01:35 18:06:04 74° 103° (ESE) 18:10:29 437.445
CUBESAT XI-V 21 Nov 18:03:10 18:07:04 27° 293° (WNW) 18:10:58 437.345
XW-2C 21 Nov 18:04:35 18:08:19 82° 258° (WSW) 18:12:04 145.795 - 145.815
LilacSat-2 21 Nov 18:07:11 18:10:55 70° 259° (W) 18:14:41 437.200
XW-2F 21 Nov 18:14:54 18:18:34 65° 259° (W) 18:22:17 145.980 - 146.000
CUTE 1.7 + AOD 2 21 Nov 18:19:17 18:23:02 32° 70° (ENE) 18:26:48 437.475
STARS 21 Nov 18:24:30 18:28:48 51° 100° (E) 18:33:03 437.465
UWE-3 21 Nov 18:40:53 18:44:08 20° 66° (ENE) 18:47:19 435.000/436.395/437.385
KAITUO 1B 21 Nov 18:42:13 18:45:39 37° 262° (W) 18:49:07 145.475/437.950
SEEDS 21 Nov 18:48:34 18:52:29 41° 72° (ENE) 18:56:26 437.485
AAUSAT CUBESAT 2 21 Nov 18:54:38 18:57:47 21° 67° (ENE) 19:00:57 437.432
CUTE-I 21 Nov 18:56:03 19:00:59 37° 263° (W) 19:05:59 437.470
XW-2D 21 Nov 18:59:37 19:02:09 17° 267° (W) 19:04:40 145.860 - 145.880
NO-84 21 Nov 19:04:30 19:06:49 15° 359° (N) 19:09:11 435.350 FM
RS-15 21 Nov 19:06:07 19:18:13 68° 116° (ESE) 19:30:18 29.354- 29.394
XW-2A 21 Nov 19:06:46 19:09:38 27° 71° (ENE) 19:12:30 145.665 - 145.685
STRAND 1 21 Nov 19:10:09 19:13:38 18° 92° (E) 19:17:04 437.568
XW-2B 21 Nov 19:15:35 19:17:08 12° 269° (W) 19:18:40 145.730 - 145.750
HO-68 21 Nov 19:18:48 19:25:56 65° 257° (WSW) 19:33:07 435.675
CUBEBUG 2 21 Nov 19:19:57 19:24:33 90° 210° (SSW) 19:29:03 437.445
AO-73 21 Nov 19:20:28 19:23:55 24° 68° (ENE) 19:27:19 145.935
YUBILEINY 21 Nov 19:25:57 19:31:36 19° 283° (WNW) 19:37:15 435.215
NUDT-PHONESAT 21 Nov 19:28:19 19:29:41 12° 269° (W) 19:31:03 437.300
FO-29 21 Nov 19:31:09 19:33:52 12° 81° (E) 19:36:31 435.910
Oscar 11 21 Nov 19:36:13 19:39:41 24° 67° (ENE) 19:43:09 .
KKS-1 21 Nov 19:40:09 19:41:59 12° 300° (WNW) 19:43:49 437.445
CUTE 1.7 + AOD 2 21 Nov 19:55:40 19:58:55 22° 267° (W) 20:02:11 437.475
STARS 21 Nov 20:01:59 20:04:42 16° 297° (WNW) 20:07:26 437.465
ZACube-1 21 Nov 20:04:53 20:09:13 83° 76° (ENE) 20:13:28 437.345
UWE-3 21 Nov 20:16:09 20:20:20 39° 262° (W) 20:24:26 435.000/436.395/437.385
ISS 21 Nov 20:16:49 20:18:25 13° 131° (SE) 20:20:02 437.550
SEEDS 21 Nov 20:25:38 20:28:20 17° 268° (W) 20:31:04 437.485
AAUSAT CUBESAT 2 21 Nov 20:29:19 20:33:02 32° 264° (W) 20:36:47 437.432
XW-2A 21 Nov 20:40:20 20:42:22 15° 267° (W) 20:44:24 145.665 - 145.685
NO-84 21 Nov 20:42:09 20:45:26 21° 20° (NNE) 20:48:45 435.350 FM
STRAND 1 21 Nov 20:48:08 20:53:09 55° 288° (WNW) 20:58:06 437.568
DELFI C3 21 Nov 20:54:11 20:57:46 33° 70° (ENE) 21:01:22 145.870
AO-73 21 Nov 20:56:13 21:00:00 30° 264° (W) 21:03:46 145.935
nSIGHT-1 21 Nov 21:05:17 21:08:23 47° 141° (SE) 21:11:30 .
Oscar 11 21 Nov 21:11:52 21:15:41 31° 264° (W) 21:19:30 .
FO-29 21 Nov 21:12:27 21:20:18 67° 100° (E) 21:27:39 435.910
RS-15 21 Nov 21:19:47 21:31:28 46° 320° (NW) 21:43:02 29.354- 29.394
SO-50 21 Nov 21:33:07 21:36:51 27° 114° (ESE) 21:40:37 436.795
EO-88 21 Nov 21:48:30 21:52:06 72° 77° (ENE) 21:55:44 145.990 - 145.960
UNISAT 6 21 Nov 21:51:08 21:54:39 24° 95° (E) 21:58:09 437.425
ISS 21 Nov 21:51:13 21:54:29 78° 328° (NNW) 21:57:46 437.550
Max Valier Satellite 21 Nov 21:51:43 21:55:20 70° 258° (WSW) 21:59:00 145.860
TIGRISAT 21 Nov 21:55:18 21:58:49 25° 95° (E) 22:02:18 435.000
LO-87 21 Nov 22:12:05 22:14:28 17° 67° (ENE) 22:16:51 145.935 - 145.965
NO-84 21 Nov 22:19:06 22:23:22 75° 38° (NE) 22:27:37 435.350 FM
DELFI C3 21 Nov 22:29:44 22:32:35 19° 267° (W) 22:35:27 145.870
ESTCUBE 1 21 Nov 22:30:05 22:33:43 25° 67° (ENE) 22:37:22 437.505/2401.250
PRISM 21 Nov 22:38:00 22:41:32 26° 96° (E) 22:45:02 437.425
nSIGHT-1 21 Nov 22:41:52 22:44:44 28° 339° (NNW) 22:47:36 .
FO-29 21 Nov 22:58:11 23:04:40 29° 300° (WNW) 23:10:53 435.910
SO-50 21 Nov 23:13:01 23:17:09 36° 312° (NW) 23:21:21 436.795
UNISAT 6 21 Nov 23:27:39 23:31:22 29° 291° (WNW) 23:35:02 437.425
O/OREOS (USA 219) 21 Nov 23:27:45 23:32:17 63° 65° (ENE) 23:36:45 437.305
ISS 21 Nov 23:28:47 23:31:23 21° 346° (NNW) 23:33:57 437.550
TIGRISAT 21 Nov 23:31:49 23:35:30 29° 291° (WNW) 23:39:08 435.000
RS-15 21 Nov 23:38:36 23:48:12 25° 353° (N) 23:57:33 29.354- 29.394
SPROUT 21 Nov 23:38:47 23:42:34 31° 69° (ENE) 23:46:21 437.525
LO-87 21 Nov 23:44:22 23:47:37 31° 263° (W) 23:50:53 145.935 - 145.965
QB50P2 21 Nov 23:45:23 23:48:20 18° 93° (E) 23:51:16 145.880/145.840
NO-84 21 Nov 23:57:30 00:00:18 17° 236° (SW) 00:03:04 435.350 FM
